Location: ????? ??????
(25.7403°N, 32.6016°E)
Time: 03:34:28
(UTC+00:00)

Daily predictions for brighter satellites

Satellite Brightness Start Highest point End
(mag) Time Altitude Azimuth Time Altitude Azimuth Time Altitude Azimuth
CZ-3 R/B 4.3 00:50:27 48° SSW 00:57:02 56° SSE 01:08:17 10° E
H-2A R/B 4.5 00:16:47 10° WSW 01:21:22 79° NNW 01:29:20 10° ENE
USA 234 3.6 01:36:00 10° SE 01:42:23 60° NE 01:43:30 53° N
Meteosat 1 Rocket2 4.3 01:49:04 76° NNW 01:49:21 77° N 01:55:33 10° E
Cosmos 1745 Rocket 4.4 01:44:46 10° N 01:51:02 62° E 01:57:17 10° SSE
Mugunghwa Rocket 4.5 01:53:19 51° SSE 01:53:19 51° SSE 01:58:35 10° ESE
CZ-4C R/B 3.0 01:57:43 35° SE 01:58:11 35° ESE 02:02:41 10° NE
OAO 3 Rocket 4.1 02:12:36 40° N 02:12:36 40° N 02:16:21 10° NE
Cosmos 2322 Rocket 2.5 02:08:36 10° NNW 02:14:15 67° ENE 02:19:53 10° SSE
CBERS 1 LM4 rocket 4.4 02:09:42 10° NNE 02:13:54 70° NNE 02:13:54 70° NNE
Cosmos 2344 4.1 02:15:32 35° NW 02:15:32 35° NW 02:21:35 10° N
X-37B 3.2 02:16:02 20° ENE 02:16:02 20° ENE 02:17:45 10° E
Exosat Rocket 4.3 02:07:41 10° NNW 02:16:41 67° WSW 02:22:53 10° S
Milstar 3 Cent rocket 1.8 02:20:18 71° NNW 02:20:29 72° N 02:25:07 10° ENE
Landsat 5 4.3 02:17:23 10° SSE 02:19:56 39° SE 02:19:56 39° SE
Cosmos 1386 Rocket 4.4 02:20:58 10° NNW 02:27:16 64° W 02:33:25 10° S
Cosmos 1302 Rocket 3.9 02:27:22 59° WNW 02:28:01 65° WSW 02:33:14 10° S
Cosmos 883 Rocket 4.4 02:28:37 35° SW 02:31:04 55° W 02:37:04 10° N
H-2A R/B 3.0 02:27:00 10° SSE 02:31:10 49° ENE 02:35:16 10° N
Cosmos 1933 4.1 02:27:22 10° S 02:31:15 51° E 02:35:09 10° NNE
Sakura Rocket 2.9 02:31:59 57° N 02:31:59 57° N 02:35:25 10° ENE
Cosmos 1500 Rocket 3.4 02:27:33 10° N 02:31:55 80° W 02:36:18 10° S
Skynet4D Del rocket 3.4 02:31:22 54° WSW 02:32:34 80° SSE 02:37:55 10° E
Orbus 7S 4.3 02:37:25 36° SE 02:37:25 36° SE 02:39:25 10° E
SL-16 R/B 2.3 02:37:38 34° NW 02:39:45 50° WSW 02:45:12 10° S
Cosmos 2315 Rocket 4.0 02:36:46 10° SSW 02:42:49 55° W 02:48:52 10° N
SJ-12 3.9 02:39:08 10° NNE 02:43:11 77° ESE 02:47:13 10° S
Cosmos 2251 Rocket 3.9 02:43:18 38° WNW 02:43:23 39° WNW 02:48:20 10° N
Cosmos 1151 Rocket 3.9 02:42:44 10° SSE 02:46:56 49° E 02:51:06 10° NNE
SeaSat 1 3.9 02:45:04 10° SE 02:49:34 38° ENE 02:54:07 10° N
Alouette 2 Rocket 4.1 02:46:21 10° SSW 02:50:54 71° W 02:57:58 10° N
ATLAS 5 CENTAUR R/B 1.0 02:49:36 38° SW 02:50:57 74° WNW 02:54:55 10° NNE
CZ-4B R/B 3.9 02:48:54 10° SE 02:51:25 22° ENE 02:53:55 10° NNE
ATLAS CENTAUR R/B 3.6 02:56:40 13° SSW 02:56:40 13° SSW 02:57:32 10° SSW
Fermi 3.8 02:55:50 38° WSW 02:57:09 64° S 03:01:10 10° ESE
ASTRO E2 2.9 02:56:41 31° NW 02:58:21 61° NNE 03:02:19 10° E
CZ-4B R/B 3.5 02:55:29 10° NNE 02:59:59 69° E 03:04:25 10° S
Cosmos 2237 4.1 02:56:12 10° NNW 03:01:51 67° WSW 03:07:28 10° S
Meteor 2-17 Rocket 4.3 02:57:47 10° NNW 03:03:46 68° W 03:09:46 10° S
GPS 2-04 Rocket1 4.2 03:09:41 17° NW 03:11:21 22° N 03:14:27 10° NE
ALOS 4.2 03:14:00 10° NW 03:14:46 12° NW 03:14:46 12° NW
Cosmos 1328 Rocket 3.4 03:12:01 10° S 03:16:19 82° W 03:20:37 10° N
Cosmos 407 Rocket 3.5 03:11:21 10° SSW 03:16:27 55° WNW 03:21:32 10° N
MOS 1 Rocket 3.0 03:12:14 10° SSE 03:16:31 89° ENE 03:20:53 10° N
CZ-3C R/B 2.1 03:17:10 10° SSW 03:17:32 10° S 03:17:56 10° S
Meteor 1-31 Rocket 3.8 03:15:17 10° NNW 03:18:26 24° WNW 03:21:34 10° SW
Cosmos 2074 Rocket 4.3 03:15:54 10° N 03:22:05 71° E 03:28:14 10° SSE
COSMO-SKYMED 1 2.5 03:18:22 10° S 03:22:42 83° WSW 03:27:02 10° NNW
Cosmos 1190 Rocket 4.0 03:18:39 10° SSW 03:23:53 65° WNW 03:29:10 10° N
H-2A R/B 2.7 03:20:42 10° N 03:24:29 58° WNW 03:28:14 10° SSW
Cosmos 2333 4.4 03:18:48 10° NNW 03:24:36 80° ENE 03:30:22 10° SSE
USA 234 4.2 03:20:15 10° S 03:25:27 25° WSW 03:30:41 10° WNW
Cosmos 2360 Rocket 2.5 03:21:48 10° NNW 03:27:11 46° WSW 03:32:32 10° S
Cosmos 1782 2.9 03:23:58 10° SSW 03:27:48 52° W 03:31:39 10° N
Cosmos 676 Rocket 4.2 03:24:48 10° S 03:30:06 79° ESE 03:35:25 10° NNE
Cosmos 1437 Rocket 3.2 03:27:08 10° SSW 03:31:03 43° W 03:34:56 10° N
Cosmos 1805 Rocket 4.4 03:28:17 10° NNW 03:32:05 28° W 03:35:51 10° SSW
Meteor 1-26 Rocket 4.4 03:26:45 10° SSW 03:32:08 51° W 03:37:42 10° N
Iridium 51 4.3 03:29:41 10° NNW 03:33:12 43° W 03:36:31 10° SSW
CENTAUR R/B 3.9 03:26:38 10° NNW 03:35:09 61° ENE 03:43:54 10° SE
CSL-04 DEB 4.5 03:32:18 10° S 03:36:17 54° WSW 03:40:11 10° NNW
NOSS 3-4 (A) 4.2 03:32:35 10° WSW 03:37:32 28° NW 03:42:38 10° N
NOSS 3-4 (C) 4.2 03:32:40 10° WSW 03:37:37 29° NW 03:42:45 10° N
Cosmos 2227 Rocket 2.9 03:33:35 10° S 03:39:08 60° ESE 03:44:42 10° NNE
DELTA 4 R/B 3.0 03:38:19 10° WSW 03:40:00 14° SW 03:41:13 10° S
YAOGAN 6 2.7 03:37:56 10° N 03:41:19 48° WNW 03:44:39 10° SSW
Cosmos 2333 Rocket 2.3 03:36:20 10° NNW 03:42:07 90° NE 03:47:52 10° SSE
PSLV R/B 3.8 03:38:19 10° NNE 03:42:14 84° E 03:46:02 10° S
Cosmos 2184 Rocket 4.0 03:38:01 10° N 03:44:20 76° W 03:50:41 10° S
CZ-4C R/B 3.4 03:43:44 10° W 03:46:46 17° NW 03:50:03 10° N
H-2A R/B 4.2 03:43:32 10° NNE 03:47:09 35° E 03:50:40 10° SSE
deb Chang Zheng 4 4.3 03:44:08 10° NNW 03:47:54 31° WNW 03:51:41 10° SW
NOAA 6 4.1 03:43:56 10° NNE 03:49:05 86° ESE 03:54:11 10° SSW
Okean O Rocket 3.8 03:45:27 10° NE 03:49:25 32° E 03:53:23 10° SSE
Lacrosse 4 Rocket 1.9 03:46:05 10° NW 03:50:14 41° WSW 03:54:16 10° S
Meteosat 1 Rocket2 3.9 03:43:32 10° W 03:50:31 58° SSW 03:55:09 10° SE
ATLAS 2AS CENTAUR R/B 3.4 03:44:29 10° SW 03:51:54 45° WNW 03:59:24 10° NNE
